星链-1621 (STARLINK-1621 )

导读

STARLINK-1621是美国SpaceX公司星链计划中的一颗卫星,于2020年8月18日发射入轨。星链计划旨在构建全球卫星互联网星座,为全球提供高速低延迟的互联网接入服务,该卫星是星链组网过程中发射的卫星之一,承担着拓展星座覆盖范围、提升网络服务能力的作用。

基本信息
目录编号:
46127
目录名称:
STARLINK-1621
国际标识:
2020-057L
轨道中心:
EARTH
卫星名称:
星链-1621
卫星全名:
星链-1621 (STARLINK-1621 )
卫星状态:
已陨落 最后检测时间 2026-04-29
发射日期:
2020-08-18 UTC
国别 :
美国 (US)
星等 :
--
轨道信息
数据来源 国际轨道数据
星历时间: 2026-04-29T05:08:46+0800
轨道信息已过期50天
半长轴: 6536.573km
偏心率: 0.0008647
轨道倾角: 53.023°
近地点辐角 267.841°
升交点赤经 347.022°
平近点角 92.165°
近地点: 152.783km
远地点: 164.089km
周期: 87.657分钟
每日圈数: 16.427732
详细信息
固有亮度:
5
最大亮度:
2.5
卫星平台:
Starlink V1.0
覆盖范围:
全球
运营商:
太空探索技术公司
运营商所在国:
美国
制造商(研发单位):
太空探索技术公司
制造商所在国:
美国
使用方式:
暂无
卫星简介
星链(Starlink)计划是由太空探索技术公司(SpaceX)提出的一个巨型低轨卫星互联网星座项目,计划在2019年至2024年间在太空搭建由约1.2万颗卫星组成的“星链”网络,其中1584颗将部署在地球上空550千米处的近地轨道,并从2020年开始工作。该卫星仍在工作。